Location: Unspecified
(58.7730°N, 5.8460°E)
Time: 12:16:14
(UTC+02:00)

Okean 3 - Visible Passes

Search period start: 21 April 2014 00:00
Search period end: 01 May 2014 00:00
Orbit: 583 x 612 km, 82.5° (Epoch: 20 April)

Date Brightness Start Highest point End Pass type
(mag) Time Alt. Az. Time Alt. Az. Time Alt. Az.
21 Apr 6.3 00:22:48 10° W 00:25:35 17° NW 00:28:22 10° NNW visible
21 Apr 4.1 22:53:56 10° SSW 22:58:08 57° WNW 23:02:21 10° N visible
22 Apr 6.4 00:34:33 10° WNW 00:36:33 13° NW 00:38:32 10° NNW visible
22 Apr 4.8 23:04:51 10° SW 23:08:54 41° WNW 23:12:57 10° N visible
23 Apr 5.4 23:15:54 10° SW 23:19:41 31° WNW 23:23:29 10° N visible
24 Apr 5.9 23:27:06 10° WSW 23:30:32 23° WNW 23:33:58 10° N visible
25 Apr 3.5 21:59:03 10° SSW 22:03:19 89° WNW 22:07:35 10° NNE visible
25 Apr 6.3 23:38:28 10° W 23:41:24 18° NW 23:44:20 10° NNW visible
26 Apr 4.0 22:09:46 10° SSW 22:13:59 64° WNW 22:18:12 10° N visible
26 Apr 6.5 23:50:04 10° W 23:52:19 14° NW 23:54:34 10° NNW visible
27 Apr 4.7 22:20:37 10° SW 22:24:42 45° WNW 22:28:47 10° N visible
28 Apr 6.9 00:02:13 10° WNW 00:03:16 11° NW 00:04:19 10° NNW visible
28 Apr 5.4 22:31:35 10° SW 22:35:27 33° WNW 22:39:19 10° N visible
29 Apr 6.0 22:42:42 10° WSW 22:46:14 25° WNW 22:49:47 10° N visible
30 Apr 6.4 22:53:58 10° WSW 22:57:04 19° WNW 23:00:10 10° N visible
